Weather in Svetly

Russia / Tomsk District     56°34′42″N   85°06′11″E
temp.,
°C
wind,
m/s
gust,
m/s
humid.,
%
clouds,
%
prec.,
mm/h
press.,
hPa
HPBL,
m
7 may, fri
fri701:00+14s3975100 0.0 1000151
04:00+13sw2877100 0.0 1000169
07:00+12nw51180100 0.0 1003712
10:00+13nw5852100 0.0 10061208
13:00+16wnw683960 0.0 10072362
16:00+17wnw61032100 0.0 10082857
19:00+16w5103898 0.0 10102552
22:00+11wnw395354 0.0 1013271
8 may, sat
sat801:00+7w22650 0.0 101543
04:00+6wsw311665 0.0 1016271
07:00+7wsw4116382 0.0 1016400
10:00+10sw5115193 0.0 1015739
13:00+14w6135188 0.0 10131568
16:00+14wnw5146498 0.4 10131505
19:00+15nw5115251 0.9 10131831
22:00+8nnw38657 0.0 1016275
9 may, sun
sun901:00+5nnw28765 0.0 1017293
04:00+2nnw27802 0.0 1019271
07:00+3nnw36775 0.0 1021320
10:00+8nnw34555 0.0 10211001
13:00+11nnw34415 0.0 10211551
16:00+14n34365 0.0 10201800
19:00+13nne23375 0.0 10211874
22:00+8ne3659100 0.0 1022115
10 may, mon
mon1001:00+6e3107211 0.0 1022283
04:00+3e388329 0.0 1021179
07:00+5ene38765 0.0 1021283
10:00+10ene57505 0.0 10201036
13:00+13ene57405 0.0 10181689
16:00+14ne563438 0.0 10162153
19:00+13ne564334 0.0 10161884
22:00+7nne310615 0.0 1017261
11 may, tue
tue1101:00+5nne3107197 0.0 1017316
04:00+5nne3976100 0.0 1017270
07:00+6n387896 0.0 1017258
10:00+12nne475110 0.0 10171378
13:00+15nne5639100 0.3 10162561
16:00+15nne564190 0.0 10172122
19:00+14nne454814 0.0 10181295
22:00+9n25715 0.0 102078